Overview Statistics Trail Chart Weather Telemetry Raw packets
 

This is the latest recevied weather packets stored in our database for station/object SV4JYD-13. If no packets are shown the sender has not sent any weather packets the latest 10 day(s).

<< 1 2 3 4 >>
Time Temp. Humidity Pressure Rain* Wind** Luminosity Snow
1778022116 14.44° C 82% 1015 hPa 0 mm - - -
1778021216 14.44° C 81% 1015 hPa 0 mm - - -
1778020326 15° C 78% 1015 hPa 0 mm - - -
1778019415 15° C 80% 1015 hPa 0 mm - - -
1778018515 15° C 80% 1015 hPa 0 mm - - -
1778017615 15.56° C 80% 1015 hPa 0 mm - - -
1778016715 15.56° C 80% 1015 hPa 0 mm - - -
1778015814 15.56° C 81% 1015 hPa 0 mm - - -
1778014914 15.56° C 81% 1015 hPa 0 mm - - -
1778014014 16.11° C 78% 1015 hPa 0 mm - - -
1778013114 16.11° C 79% 1015 hPa 0 mm - - -
1778012213 16.11° C 81% 1015 hPa 0 mm - - -
1778011313 17.22° C 78% 1015 hPa 0 mm - - -
1778010413 17.78° C 73% 1015 hPa 0 mm - - -
1778009511 17.78° C 75% 1015 hPa 0 mm - - -
1778008611 19.44° C 74% 1015 hPa 0 mm - - -
1778007711 19.44° C 75% 1015 hPa 0 mm - - -
1778006811 18.89° C 77% 1015 hPa 0 mm - - -
1778005910 19.44° C 75% 1015 hPa 0 mm - - -
1778005010 20° C 71% 1014 hPa 0 mm - - -
1778004110 20.56° C 69% 1015 hPa 0 mm - - -
1778003210 21.11° C 53% 1015 hPa 0 mm - - -
1778002309 21.67° C 71% 1014 hPa 0 mm - - -
1778001409 21.11° C 10% - 0 mm - - -
1778000509 21.67° C 10% - 0 mm - - -

* Rain latest hour (hover to see other rain measurements)
** Current wind speed in m/s (hover to see current wind gust speed)